sat.trackr.live / text

‹ back to catalog

STARLINK-35320

NORAD 65834 · 2025-221M

PAYLOAD ACTIVE UNKNOWN

§ Identity

Operator
Country
US
Launch date
2025-09-29
Launch site
AFWTR
Launch vehicle
Mass (kg)
RCS (m²)

Purposes: comms

External: N2YO · Heavens-Above · Gunter

§ Orbital elements

Epoch: 2026-09-20T05:48:53.474976Z

Period
93.85 min
Inclination
53.1569°
Eccentricity
0.0001739
Mean motion
15.34411192 rev/d
Perigee alt
461.5 km
Apogee alt
463.9 km
Semi-major
6,840.8 km
B*
3.8580e-4
RAAN
263.0138°
Arg perigee
87.6425°
Mean anomaly
272.4777°
Rev number
5,454

§ Raw data

STARLINK-353201 65834U 25221M   26263.24228559  .00012685  00000+0  38580-3 0  99922 65834  53.1569 263.0138 0001739  87.6425 272.4777 15.34411192 54547

JSON: /api/v1/satellites/65834 · /tle

For live sub-satellite position, see the globe view (requires WebGL).

§ Visibility from observer

Set your observer location to see the next 7 days of passes ≥ 10°. The values pass through the URL so the page stays shareable.

No JS? Fill the form by hand. The geolocation button needs JavaScript.